PDT,Max TemperatureF,Mean TemperatureF,Min TemperatureF,Max Dew PointF,MeanDew PointF,Min DewpointF,Max Humidity, Mean Humidity, Min Humidity, Max Sea Level PressureIn, Mean Sea Level PressureIn, Min Sea Level PressureIn, Max VisibilityMiles, Mean VisibilityMiles, Min VisibilityMiles, Max Wind SpeedMPH, Mean Wind SpeedMPH, Max Gust SpeedMPH,PrecipitationIn, CloudCover, Events, WindDirDegrees
2013-3-1,77,66,54,49,38,23,57,37,14,30.31,30.24,30.18,7,7,7,17,8,23,0.00,0,,352
2013-3-2,73,64,55,54,48,38,83,61,33,30.21,30.16,30.09,7,7,2,12,6,,0.00,4,,290
2013-3-3,61,58,56,54,52,49,84,75,68,30.14,30.05,30.00,7,7,7,12,6,17,0.00,5,,266
2013-3-4,63,58,51,52,49,46,86,77,68,30.11,30.08,30.03,7,7,5,14,5,,0.00,3,,277
2013-3-5,60,56,52,51,49,47,82,78,69,30.14,30.10,30.05,7,5,4,13,5,,0.00,7,,257
2013-3-6,59,54,49,50,46,44,88,77,58,30.16,30.09,30.02,7,5,2,10,3,,0.02,7,Rain,153
2013-3-7,61,56,51,49,47,46,87,76,63,30.03,29.96,29.85,7,6,4,21,4,39,0.29,7,Rain,154
2013-3-8,58,52,47,49,45,42,81,71,61,30.03,29.90,29.82,7,7,7,25,8,34,0.67,6,Rain,286
2013-3-9,61,58,55,50,45,37,79,62,45,30.23,30.14,30.06,7,7,7,21,13,29,0.00,0,,299
2013-3-10,65,58,52,51,46,40,72,57,47,30.29,30.23,30.19,7,7,7,16,6,22,0.00,0,,329
2013-3-11,65,55,45,50,44,33,77,61,46,30.19,30.14,30.06,7,7,7,9,4,,0.00,0,,314
2013-3-12,60,54,47,54,50,38,94,80,59,30.10,30.07,30.04,7,5,0,8,3,,0.00,2,Fog,282
2013-3-13,60,54,48,54,51,48,100,90,75,30.13,30.09,30.05,7,4,0,12,3,,0.00,4,Fog,304
2013-3-14,61,56,50,54,51,47,92,83,72,30.12,30.08,30.02,7,5,0,10,3,,0.00,5,Fog,290
2013-3-15,59,56,53,54,52,50,94,86,77,30.05,30.01,29.96,2,1,0,13,4,,0.00,8,Fog,179
2013-3-16,62,57,52,54,51,48,88,82,72,30.01,29.95,29.89,5,3,0,10,4,,0.00,6,,196
2013-3-17,61,56,51,52,51,48,91,81,71,30.02,29.99,29.95,7,4,0,16,4,,0.00,5,Fog,177
2013-3-18,60,54,48,53,50,44,90,77,68,30.09,30.05,29.99,6,5,4,9,4,,0.00,6,,348
2013-3-19,62,56,50,54,52,46,85,79,70,30.13,30.09,30.06,7,6,4,9,3,,0.00,6,,250
2013-3-20,63,58,53,54,51,48,85,74,64,30.12,30.05,29.97,7,6,4,10,4,,0.00,5,,235
2013-3-21,62,57,52,53,51,47,83,76,67,29.95,29.89,29.83,7,7,6,18,5,24,0.00,2,,252
2013-3-22,65,56,47,57,49,40,77,70,59,29.91,29.86,29.80,7,7,7,12,6,,0.00,0,,255
2013-3-23,65,54,44,55,50,34,78,68,57,30.03,29.98,29.92,7,7,7,13,5,,0.00,1,,50
2013-3-24,64,56,47,56,51,39,76,72,68,30.04,29.97,29.91,7,7,7,10,4,,0.00,0,,325
2013-3-25,65,56,47,57,52,41,88,80,73,29.99,29.95,29.91,7,4,1,13,4,,0.00,4,,233
2013-3-26,63,56,50,55,51,46,100,83,65,29.99,29.96,29.93,7,4,0,12,3,,0.00,4,Fog,318
2013-3-27,64,58,51,55,51,46,88,77,68,30.06,30.00,29.94,7,6,4,12,4,,0.00,4,,265
2013-3-28,61,56,50,53,51,45,89,81,68,30.10,30.06,30.03,6,4,2,10,4,,0.00,7,,305
2013-3-29,60,58,55,54,54,50,94,86,76,30.13,30.09,30.05,7,3,0,14,4,,0.00,7,Fog,225
2013-3-30,63,60,57,55,53,49,84,78,66,30.15,30.12,30.08,7,6,5,10,4,,0.00,6,,213
2013-3-31,63,61,59,61,58,54,94,88,79,30.14,30.11,30.08,7,4,1,15,4,22,0.02,8,Rain,188